TimeEDT,TemperatureF,Dew PointF,Humidity,Sea Level PressureIn,VisibilityMPH,Wind Direction,Wind SpeedMPH,Gust SpeedMPH,PrecipitationIn,Events,Conditions,WindDirDegrees,DateUTC
12:51 AM,72.0,69.1,91,29.87,4.0,SSW,5.8,-,N/A,,Clear,210,2013-05-24 04:51:00
1:51 AM,72.0,70.0,93,29.85,4.0,SW,6.9,-,N/A,,Overcast,230,2013-05-24 05:51:00
2:51 AM,72.0,70.0,93,29.81,4.0,WSW,4.6,-,N/A,,Overcast,250,2013-05-24 06:51:00
3:51 AM,72.0,69.1,91,29.80,3.0,Calm,Calm,-,N/A,,Scattered Clouds,0,2013-05-24 07:51:00
4:15 AM,71.6,69.8,94,29.80,4.0,Calm,Calm,-,N/A,,Mostly Cloudy,0,2013-05-24 08:15:00
4:24 AM,71.6,69.8,94,29.80,3.0,Calm,Calm,-,N/A,,Overcast,0,2013-05-24 08:24:00
4:32 AM,71.6,69.8,94,29.80,1.8,SW,3.5,-,N/A,,Overcast,220,2013-05-24 08:32:00
4:41 AM,71.6,69.8,94,29.81,1.0,Calm,Calm,-,N/A,,Overcast,0,2013-05-24 08:41:00
4:51 AM,71.1,69.1,93,29.80,1.5,Calm,Calm,-,N/A,,Overcast,0,2013-05-24 08:51:00
5:12 AM,71.6,69.8,94,29.79,2.0,SSE,3.5,-,N/A,,Overcast,160,2013-05-24 09:12:00
5:20 AM,71.6,69.8,94,29.80,2.5,South,3.5,-,N/A,,Mostly Cloudy,170,2013-05-24 09:20:00
5:28 AM,71.6,69.8,94,29.80,3.0,SSE,4.6,-,N/A,,Mostly Cloudy,160,2013-05-24 09:28:00
5:43 AM,71.6,69.8,94,29.80,4.0,South,8.1,-,N/A,,Scattered Clouds,180,2013-05-24 09:43:00
5:51 AM,72.0,70.0,93,29.80,6.0,South,5.8,-,N/A,,Partly Cloudy,190,2013-05-24 09:51:00
6:27 AM,71.6,69.8,94,29.82,3.0,SW,3.5,-,N/A,,Scattered Clouds,220,2013-05-24 10:27:00
6:38 AM,71.6,69.8,94,29.81,4.0,SSW,5.8,-,N/A,,Mostly Cloudy,210,2013-05-24 10:38:00
6:51 AM,72.0,70.0,93,29.81,4.0,SW,5.8,-,N/A,,Mostly Cloudy,220,2013-05-24 10:51:00
6:59 AM,71.6,69.8,94,29.81,3.0,SW,8.1,-,N/A,,Scattered Clouds,220,2013-05-24 10:59:00
7:24 AM,73.4,71.6,94,29.82,4.0,SW,8.1,-,N/A,,Mostly Cloudy,230,2013-05-24 11:24:00
7:48 AM,71.6,69.8,94,29.82,8.0,West,6.9,-,N/A,,Mostly Cloudy,270,2013-05-24 11:48:00
7:51 AM,72.0,69.1,91,29.82,9.0,West,6.9,-,N/A,,Mostly Cloudy,260,2013-05-24 11:51:00
7:58 AM,73.4,68.0,83,29.83,10.0,West,4.6,-,N/A,,Mostly Cloudy,280,2013-05-24 11:58:00
8:51 AM,75.9,69.1,79,29.83,10.0,WNW,6.9,-,N/A,,Clear,290,2013-05-24 12:51:00
9:51 AM,78.1,69.1,74,29.83,10.0,West,6.9,-,N/A,,Clear,280,2013-05-24 13:51:00
10:38 AM,77.0,69.8,78,29.82,10.0,West,4.6,-,N/A,,Mostly Cloudy,280,2013-05-24 14:38:00
10:51 AM,75.9,69.1,79,29.82,10.0,West,6.9,-,N/A,,Overcast,280,2013-05-24 14:51:00
11:44 AM,77.0,68.0,74,29.83,10.0,West,9.2,-,N/A,,Overcast,280,2013-05-24 15:44:00
11:51 AM,77.0,68.0,74,29.83,10.0,WNW,9.2,-,N/A,,Overcast,290,2013-05-24 15:51:00
12:32 PM,78.8,68.0,69,29.84,10.0,West,12.7,-,N/A,,Mostly Cloudy,280,2013-05-24 16:32:00
12:51 PM,77.0,66.0,69,29.85,10.0,West,10.4,-,N/A,,Mostly Cloudy,270,2013-05-24 16:51:00
1:51 PM,80.1,66.0,62,29.84,10.0,West,9.2,-,N/A,,Scattered Clouds,280,2013-05-24 17:51:00
2:51 PM,79.0,64.9,62,29.85,10.0,NW,13.8,20.7,N/A,,Partly Cloudy,310,2013-05-24 18:51:00
3:28 PM,69.8,60.8,73,29.88,10.0,NNE,13.8,28.8,N/A,,Mostly Cloudy,20,2013-05-24 19:28:00
3:51 PM,68.0,61.0,78,29.89,10.0,North,9.2,32.2,N/A,,Overcast,350,2013-05-24 19:51:00
4:33 PM,64.4,55.4,73,29.92,10.0,North,12.7,28.8,0.00,,Overcast,350,2013-05-24 20:33:00
4:46 PM,64.4,53.6,68,29.94,10.0,NNW,11.5,24.2,0.00,Rain,Light Rain,340,2013-05-24 20:46:00
4:51 PM,64.0,55.0,73,29.94,10.0,North,11.5,26.5,0.00,Rain,Light Rain,350,2013-05-24 20:51:00
5:51 PM,64.0,54.0,70,29.97,10.0,North,10.4,24.2,0.00,,Scattered Clouds,10,2013-05-24 21:51:00
6:51 PM,64.0,52.0,65,29.99,10.0,North,10.4,25.3,N/A,,Overcast,10,2013-05-24 22:51:00
7:51 PM,63.0,52.0,67,30.03,10.0,Variable,6.9,19.6,N/A,,Scattered Clouds,0,2013-05-24 23:51:00
8:51 PM,62.1,53.1,72,30.05,10.0,NNE,9.2,-,N/A,,Mostly Cloudy,30,2013-05-25 00:51:00
8:59 PM,62.6,53.6,72,30.05,10.0,NNE,11.5,19.6,N/A,,Mostly Cloudy,30,2013-05-25 00:59:00
9:07 PM,62.6,51.8,68,30.05,10.0,NNE,12.7,23.0,N/A,,Overcast,30,2013-05-25 01:07:00
9:40 PM,62.6,51.8,68,30.07,10.0,NE,12.7,23.0,N/A,,Overcast,40,2013-05-25 01:40:00
9:51 PM,62.1,51.1,67,30.08,10.0,NNE,12.7,24.2,N/A,,Overcast,30,2013-05-25 01:51:00
10:51 PM,62.1,50.0,65,30.10,10.0,North,10.4,21.9,N/A,,Scattered Clouds,10,2013-05-25 02:51:00
11:51 PM,60.1,44.1,55,30.12,10.0,North,9.2,20.7,N/A,,Clear,10,2013-05-25 03:51:00